#timestamp,LO_Frequency,Hit,StdDev 
1596420015.8,286046993.0,N
1596420035.6,286046992.0,Y
1596420055.5,286046995.9,P
1596420075.3,286046993.7,P
1596420095.1,286046994.7,P
1596420115.9,286046990.3,Y
1596420135.7,286046997.5,P
1596420155.5,286046996.5,P
1596420175.4,286046997.8,N
1596420195.2,286046999.5,N
1596420215.1,286046994.7,Y
1596420216.0,286046994.7,P
1596420235.8,286046993.5,P
1596420255.6,286046996.3,N
1596420275.5,286047002.5,N
1596420295.3,286047000.3,N
1596420315.1,286047000.5,N
1596420335.9,286047000.3,N
1596420355.7,286047002.7,N
1596420375.6,286047000.3,N
1596420395.4,286047002.7,N
1596420415.2,286047002.3,N
1596420435.1,286047002.9,N
1596420436.0,286047002.9,N
1596420455.8,286047005.2,N
1596420475.6,286047002.1,N
1596420495.5,286047000.6,N
1596420515.3,286046996.9,N
1596420535.2,286046995.8,N
1596420555.9,286046996.9,N
1596420575.7,286046996.9,N
1596420595.6,286046999.5,N
1596420615.4,286046995.7,N
1596420635.2,286046996.3,N
1596420655.1,286046996.1,N
1596420656.0,286046996.1,N
1596420675.8,286046994.1,N
1596420695.7,286046992.6,N
1596420715.5,286046993.8,N
1596420735.3,286046994.7,N
1596420755.2,286046990.9,N
1596420775.0,286046992.5,N
1596420775.9,286046992.5,N
1596420795.7,286046991.9,N
1596420815.6,286046990.8,N
1596420835.4,286046989.9,N
1596420855.3,286046988.0,N
1596420875.1,286046989.6,N
1596420876.0,286046989.6,N
1596420895.8,286046987.6,N
1596420915.7,286046983.8,Y
1596420935.5,286046992.8,P
1596420955.4,286046990.0,P
1596420975.2,286046991.1,P
1596420995.0,286046989.8,Y
1596420995.9,286046989.8,P
1596421015.8,286046998.4,N
1596421035.6,286047000.9,N
1596421055.4,286046997.0,N
1596421075.3,286046997.2,N
1596421095.1,286046995.5,N
1596421115.9,286046993.6,N
1596421135.7,286046996.0,N
1596421155.5,286046993.7,N
1596421175.4,286046996.1,N
1596421195.2,286046995.1,N
1596421215.0,286046993.7,N
1596421216.0,286046993.7,N
1596421235.8,286046997.8,N
1596421255.6,286046998.6,N
1596421275.5,286046996.7,N
1596421295.3,286046999.1,N
1596421315.1,286046997.0,N
1596421335.9,286046998.5,N
1596421355.7,286046999.8,N
1596421375.6,286047001.3,N
1596421395.4,286047004.7,N
1596421415.2,286047001.8,N
1596421435.1,286046996.8,N
1596421436.0,286046996.8,N
1596421455.8,286046995.8,N
1596421475.6,286046994.1,N
1596421495.5,286046993.7,N
1596421515.3,286046997.6,N
1596421535.2,286046995.7,N
1596421555.9,286046996.0,N
1596421575.7,286046996.2,N
1596421595.6,286046993.6,N
1596421615.4,286046995.9,N
1596421635.2,286046997.5,N
1596421655.1,286046992.3,N
1596421656.0,286046992.3,N
1596421675.8,286046992.3,N
1596421695.7,286046995.3,N
1596421715.5,286046996.6,N
1596421735.3,286046999.3,N
1596421755.2,286046996.2,N
1596421775.0,286046997.1,N
1596421775.9,286046997.1,N
1596421795.7,286047000.9,N
1596421815.6,286047004.4,N
1596421835.4,286047002.2,N
1596421855.3,286047001.5,N
1596421875.1,286047002.6,N
1596421876.0,286047002.6,N
1596421895.8,286047000.8,N
1596421915.7,286047000.1,N
1596421935.5,286047004.0,N
1596421955.3,286047003.7,N
1596421975.2,286047003.2,N
1596421995.0,286047005.6,N
1596421995.9,286047005.6,N
1596422015.8,286047007.6,N
1596422035.6,286047010.7,N
1596422055.4,286047008.5,N
1596422075.3,286047006.2,N
1596422095.1,286047008.0,N
1596422115.8,286047007.9,N
1596422135.7,286047008.0,N
1596422155.5,286047005.1,N
1596422175.4,286047004.2,N
1596422195.2,286047002.6,N
1596422215.0,286047003.0,N
1596422215.9,286047003.0,N
1596422235.8,286047005.9,N
1596422255.6,286047003.3,N
1596422275.4,286047002.6,N
1596422295.3,286047000.9,N
1596422315.1,286047002.2,N
1596422335.9,286047003.6,N
1596422355.7,286047002.8,N
1596422375.5,286047003.7,N
1596422395.4,286047003.6,N
1596422415.2,286047004.0,N
1596422435.0,286047008.0,Y
1596422435.9,286047008.0,P
1596422455.8,286047006.0,P
1596422475.6,286047003.4,N
1596422495.5,286047002.2,N
1596422515.3,286046999.8,N
1596422535.1,286046999.6,N
1596422555.9,286046996.8,N
1596422575.7,286046997.1,N
1596422595.5,286046997.3,N
1596422615.4,286046998.4,N
1596422635.2,286046999.3,N
1596422655.1,286047001.2,N
1596422656.0,286047001.2,N
1596422675.8,286047000.0,N
1596422695.6,286047002.1,N
1596422715.5,286047001.3,N
1596422735.3,286047003.7,N
1596422755.1,286047006.2,N
1596422775.9,286047008.0,N
1596422795.7,286047006.3,N
1596422815.6,286047003.5,N
1596422835.4,286047007.3,N
1596422855.2,286047004.9,N
1596422875.1,286047002.9,N
1596422876.0,286047002.9,N
1596422895.8,286047007.3,N
1596422915.6,286047004.8,N
1596422935.5,286047007.2,N
1596422955.3,286047008.4,N
1596422975.2,286047009.9,N
1596422995.9,286047009.1,N
1596423015.7,286047006.4,N
1596423035.6,286047006.7,N
1596423055.4,286047009.7,N
1596423075.3,286047013.8,Y
1596423095.1,286047008.8,P
1596423096.0,286047008.8,P
1596423115.8,286047007.6,P
1596423135.7,286047001.3,N
1596423155.5,286047000.3,N
1596423175.3,286047002.5,N
1596423225.2,286046998.0,E
1596423235.1,286046995.9,N
1596423255.9,286046999.2,P
1596423275.7,286047002.2,N
1596423295.6,286047002.6,N
1596423315.4,286046999.0,N
1596423335.2,286047002.4,N
1596423355.1,286047008.8,Y
1596423356.0,286047008.8,P
1596423375.8,286047003.5,N
1596423395.7,286046999.7,N
1596423415.5,286047002.6,N
1596423435.3,286047001.7,N
1596423455.2,286047003.2,N
1596423475.0,286047006.4,N
1596423475.9,286047006.4,N
1596423495.7,286047009.7,Y
1596423515.6,286047009.0,P
1596423535.4,286047007.9,N
1596423555.3,286047010.9,P
1596423575.1,286047013.1,Y
1596423595.8,286047008.3,P
